Time,TemperatureF,DewpointF,PressureIn,WindDirection,WindDirectionDegrees,WindSpeedMPH,WindSpeedGustMPH,Humidity,HourlyPrecipIn,Conditions,Clouds,dailyrainin,SoftwareType,DateUTC
2013-03-01 03:10:00,32.0,-99.9,-100.00,North,353,2.0,3.0,-999,-99.99,,,-99.99,,2013-03-01 09:10:00,
2013-03-01 03:32:00,30.0,-99.9,-100.00,West,272,3.0,3.0,-999,-99.99,,,-99.99,,2013-03-01 09:32:00,
2013-03-01 03:43:00,30.0,-99.9,-100.00,West,272,3.0,3.0,-999,-99.99,,,-99.99,,2013-03-01 09:43:00,
2013-03-01 03:53:00,32.0,-99.9,-100.00,North,353,2.0,3.0,-999,-99.99,,,-99.99,,2013-03-01 09:53:00,
2013-03-01 04:02:00,32.0,-99.9,-100.00,North,353,2.0,3.0,-999,-99.99,,,-99.99,,2013-03-01 10:02:00,
2013-03-01 05:50:00,37.0,-99.9,-100.00,WSW,245,6.0,7.0,-999,-99.99,,,-99.99,,2013-03-01 11:50:00,
2013-03-01 05:53:00,33.0,-99.9,-100.00,WSW,238,6.0,6.0,-999,-99.99,,,-99.99,,2013-03-01 11:53:00,
2013-03-01 06:02:00,33.0,-99.9,-100.00,WSW,238,6.0,6.0,-999,-99.99,,,-99.99,,2013-03-01 12:02:00,
2013-03-01 06:33:00,37.0,-99.9,-100.00,WSW,245,6.0,7.0,-999,-99.99,,,-99.99,,2013-03-01 12:33:00,
2013-03-01 06:42:00,37.0,-99.9,-100.00,WSW,245,6.0,7.0,-999,-99.99,,,-99.99,,2013-03-01 12:42:00,
2013-03-01 07:22:00,31.0,-99.9,-100.00,WSW,243,3.0,4.0,-999,-99.99,,,-99.99,,2013-03-01 13:22:00,
2013-03-01 07:32:00,31.0,-99.9,-100.00,WSW,243,3.0,4.0,-999,-99.99,,,-99.99,,2013-03-01 13:32:00,
2013-03-01 07:42:00,31.0,-99.9,-100.00,WSW,243,3.0,4.0,-999,-99.99,,,-99.99,,2013-03-01 13:42:00,
2013-03-01 08:22:00,34.0,-99.9,-100.00,NW,309,4.0,4.0,-999,-99.99,,,-99.99,,2013-03-01 14:22:00,
2013-03-01 08:32:00,36.0,-99.9,-100.00,West,280,2.0,6.0,-999,-99.99,,,-99.99,,2013-03-01 14:32:00,
2013-03-01 08:42:00,36.0,-99.9,-100.00,West,280,2.0,6.0,-999,-99.99,,,-99.99,,2013-03-01 14:42:00,
2013-03-01 08:52:00,36.0,-99.9,-100.00,West,280,2.0,6.0,-999,-99.99,,,-99.99,,2013-03-01 14:52:00,
2013-03-01 12:02:00,58.0,-99.9,-100.00,NW,319,5.0,12.0,-999,-99.99,,,-99.99,,2013-03-01 18:02:00,
2013-03-01 12:12:00,58.0,-99.9,-100.00,NW,319,5.0,12.0,-999,-99.99,,,-99.99,,2013-03-01 18:12:00,
2013-03-01 12:22:00,58.0,-99.9,-100.00,NW,319,5.0,12.0,-999,-99.99,,,-99.99,,2013-03-01 18:22:00,
2013-03-01 14:32:00,64.0,-99.9,-100.00,North,353,2.0,7.0,-999,-99.99,,,-99.99,,2013-03-01 20:32:00,
2013-03-01 14:42:00,64.0,-99.9,-100.00,North,353,2.0,7.0,-999,-99.99,,,-99.99,,2013-03-01 20:42:00,
2013-03-01 15:02:00,67.0,-99.9,-100.00,West,276,5.0,6.0,-999,-99.99,,,-99.99,,2013-03-01 21:02:00,
2013-03-01 15:11:00,67.0,-99.9,-100.00,West,276,5.0,6.0,-999,-99.99,,,-99.99,,2013-03-01 21:11:00,
2013-03-01 16:52:00,66.0,-99.9,-100.00,NNW,335,5.0,7.0,-999,-99.99,,,-99.99,,2013-03-01 22:52:00,
2013-03-01 17:01:00,66.0,-99.9,-100.00,NNW,335,5.0,7.0,-999,-99.99,,,-99.99,,2013-03-01 23:01:00,
2013-03-01 18:32:00,64.0,-99.9,-100.00,West,262,4.0,5.0,-999,-99.99,,,-99.99,,2013-03-02 00:32:00,
2013-03-01 18:42:00,64.0,-99.9,-100.00,West,262,4.0,5.0,-999,-99.99,,,-99.99,,2013-03-02 00:42:00,
2013-03-01 18:52:00,64.0,-99.9,-100.00,West,262,4.0,5.0,-999,-99.99,,,-99.99,,2013-03-02 00:52:00,
2013-03-01 19:52:00,57.0,-99.9,-100.00,West,261,2.0,5.0,-999,-99.99,,,-99.99,,2013-03-02 01:52:00,
2013-03-01 20:00:00,53.0,-99.9,-100.00,ENE,69,0.0,2.0,-999,-99.99,,,-99.99,,2013-03-02 02:00:00,
2013-03-01 20:01:00,57.0,-99.9,-100.00,West,261,2.0,5.0,-999,-99.99,,,-99.99,,2013-03-02 02:01:00,
2013-03-01 20:53:00,53.0,-99.9,-100.00,ENE,69,0.0,2.0,-999,-99.99,,,-99.99,,2013-03-02 02:53:00,
2013-03-01 21:22:00,50.0,-99.9,-100.00,WSW,245,0.0,2.0,-999,-99.99,,,-99.99,,2013-03-02 03:22:00,
2013-03-01 21:32:00,45.0,-99.9,-100.00,WSW,244,4.0,4.0,-999,-99.99,,,-99.99,,2013-03-02 03:32:00,
2013-03-01 21:42:00,45.0,-99.9,-100.00,WSW,244,4.0,4.0,-999,-99.99,,,-99.99,,2013-03-02 03:42:00,
2013-03-01 21:53:00,45.0,-99.9,-100.00,WSW,244,4.0,4.0,-999,-99.99,,,-99.99,,2013-03-02 03:53:00,
2013-03-01 23:02:00,45.0,-99.9,-100.00,ENE,64,4.0,4.0,-999,-99.99,,,-99.99,,2013-03-02 05:02:00,
2013-03-01 23:13:00,45.0,-99.9,-100.00,ENE,64,4.0,4.0,-999,-99.99,,,-99.99,,2013-03-02 05:13:00,